Total_Precipitation_Accumulation
2.69 2.84 2.71 2.63 2.63 2.54 2.96 3.38 3.61 3.36 3.08 2.90 2.63 2.51 2.65 2.81 2.93 2.60 2.41 2.52 2.37 2.18 2.00 1.88 1.88 2.01 2.23 2.44 2.57 2.73 2.94 3.34 3.77 3.95 4.19 4.72 5.26 5.63
2.77 2.79 2.67 2.58 2.71 2.63 2.77 3.10 3.40 3.59 3.27 2.70 2.51 2.34 2.37 2.20 2.42 2.14 2.20 2.43 2.24 2.05 1.91 1.86 1.83 1.85 1.91 2.02 2.11 2.14 2.21 2.35 2.61 2.91 2.98 3.23 3.71 4.14
2.83 2.85 2.91 3.01 2.97 2.85 2.94 3.03 3.25 3.54 3.40 2.79 2.63 2.59 2.47 2.22 2.19 2.09 2.04 2.18 2.21 2.30 2.08 1.92 1.77 1.67 1.70 1.77 1.83 1.91 2.03 2.14 2.23 2.43 2.56 2.62 2.75 2.97
2.92 3.21 3.12 3.20 3.13 2.96 3.08 3.00 3.13 3.53 3.38 2.99 2.92 2.93 2.87 2.61 2.46 2.25 2.00 2.01 2.17 2.46 2.19 2.00 1.84 1.74 1.73 1.77 1.80 1.79 1.79 1.90 1.99 2.11 2.16 2.21 2.35 2.52
2.89 2.98 3.04 3.30 3.18 3.08 2.99 2.94 3.07 3.29 3.46 3.13 2.99 3.21 3.06 2.75 2.63 2.32 2.10 2.22 1.98 2.14 2.14 2.10 2.03 1.89 1.81 1.73 1.78 1.80 1.75 1.74 1.79 1.92 2.05 2.20 2.27 2.27
2.81 2.74 2.84 3.09 3.19 3.21 2.98 3.00 3.18 3.31 3.38 3.26 3.09 3.21 3.24 3.14 2.98 2.69 2.58 2.42 2.22 2.06 2.16 2.10 2.13 1.99 1.82 1.67 1.71 1.74 1.74 1.78 1.75 1.72 1.74 1.82 1.91 1.96
2.58 2.48 2.48 2.74 2.99 3.09 2.81 2.88 3.10 3.11 3.10 3.13 3.09 3.17 3.23 3.39 3.22 2.90 2.67 2.53 2.28 2.09 2.14 2.01 2.04 1.94 1.85 1.82 1.80 1.71 1.54 1.54 1.56 1.55 1.57 1.66 1.71 1.72
2.62 2.51 2.39 2.33 2.35 2.54 2.67 2.81 2.98 2.97 2.97 3.14 3.27 3.33 3.34 3.41 3.43 3.20 2.89 2.66 2.41 2.15 2.31 2.28 2.23 2.23 1.98 1.74 1.77 1.70 1.55 1.47 1.45 1.38 1.38 1.46 1.55 1.59
2.54 2.51 2.18 1.96 2.10 2.03 2.28 2.43 2.51 2.61 2.72 2.97 3.12 3.17 3.30 3.46 3.60 3.31 3.11 2.90 2.61 2.35 2.43 2.26 2.18 2.24 2.14 1.98 2.02 1.78 1.66 1.55 1.49 1.48 1.46 1.40 1.37 1.43
2.26 2.31 2.24 2.09 2.06 2.20 2.20 2.10 2.00 2.07 2.28 2.34 2.47 2.75 2.99 3.23 3.48 3.39 3.33 3.02 2.66 2.41 2.41 2.24 2.07 2.08 2.16 2.18 2.16 1.93 1.73 1.60 1.46 1.42 1.44 1.37 1.32 1.36
2.08 2.10 2.13 2.04 2.25 2.23 2.13 2.06 2.03 2.01 2.11 2.23 2.24 2.40 2.66 2.83 3.01 3.16 3.15 3.03 2.72 2.50 2.49 2.46 2.21 2.15 2.19 2.13 1.99 1.99 1.80 1.62 1.51 1.45 1.39 1.35 1.37 1.40
2.07 2.08 2.12 2.05 2.12 2.02 1.92 2.00 1.96 1.96 2.07 2.08 2.08 2.10 2.17 2.50 2.88 2.73 2.79 2.89 2.64 2.34 2.14 2.28 2.25 2.35 2.32 2.03 1.83 1.73 1.68 1.68 1.65 1.55 1.48 1.43 1.50 1.37
2.23 2.15 2.16 2.17 1.88 1.82 1.77 1.79 1.84 1.92 2.05 1.93 1.81 1.83 1.94 2.12 2.37 2.46 2.46 2.48 2.45 2.16 1.94 2.04 2.02 2.13 2.13 1.92 1.81 1.71 1.58 1.51 1.46 1.48 1.57 1.61 1.60 1.46
2.23 2.27 2.29 2.20 1.84 1.69 1.56 1.54 1.66 1.66 1.70 1.76 1.73 1.70 1.76 1.89 2.08 2.24 2.33 2.41 2.34 2.18 2.15 2.22 2.07 2.01 2.01 1.83 1.69 1.64 1.65 1.61 1.56 1.48 1.50 1.79 1.81 1.76
2.06 2.20 2.07 1.97 1.77 1.53 1.48 1.50 1.54 1.47 1.56 1.69 1.72 1.69 1.69 1.78 2.06 2.40 2.59 2.70 2.62 2.27 2.16 2.22 2.23 2.19 2.22 1.98 1.74 1.60 1.61 1.60 1.56 1.58 1.57 1.67 1.72 1.74
1.93 2.00 1.99 1.95 1.86 1.71 1.62 1.53 1.45 1.50 1.59 1.63 1.73 1.87 2.00 2.09 2.20 2.32 2.51 2.60 2.64 2.35 2.13 2.13 2.14 2.27 2.19 1.96 1.90 1.74 1.54 1.51 1.52 1.61 1.66 1.68 1.80 1.84
1.92 1.93 1.95 2.04 2.07 2.01 1.93 1.83 1.78 1.79 1.78 1.76 1.87 2.00 2.01 2.03 2.06 2.20 2.38 2.44 2.34 2.11 1.97 1.93 2.06 2.17 2.20 2.18 2.04 1.73 1.54 1.44 1.45 1.65 1.87 1.89 1.82 1.78
1.90 1.91 2.06 2.12 2.15 2.15 2.14 1.99 1.87 1.76 1.72 1.80 1.85 1.92 1.98 2.02 2.03 2.16 2.32 2.34 2.19 2.05 2.02 1.88 1.93 2.18 2.28 2.16 1.90 1.74 1.66 1.56 1.51 1.70 1.86 1.92 1.87 1.72
1.64 1.75 1.96 2.00 2.03 2.05 2.05 1.94 1.87 1.81 1.82 1.91 2.00 2.04 2.08 2.07 2.08 2.12 2.24 2.30 2.22 2.07 2.00 2.01 1.98 2.11 2.15 1.84 1.51 1.47 1.65 1.71 1.76 1.83 1.91 1.89 1.80 1.64
1.38 1.52 1.68 1.83 1.94 2.05 2.10 2.09 2.02 1.98 1.95 1.92 2.01 2.08 2.18 2.24 2.20 2.15 2.22 2.31 2.27 2.19 2.12 2.08 2.05 2.02 2.02 1.90 1.66 1.48 1.54 1.74 1.90 1.90 1.85 1.90 1.87 1.81
1.33 1.36 1.46 1.67 1.91 2.07 2.17 2.24 2.24 2.17 2.02 1.98 2.03 2.11 2.17 2.27 2.25 2.18 2.21 2.36 2.35 2.25 2.06 1.85 1.86 2.11 2.22 2.34 2.12 1.63 1.48 1.59 1.74 1.86 1.89 1.96 1.92 1.87
1.33 1.37 1.45 1.60 1.79 2.02 2.10 2.08 2.10 2.05 2.02 2.02 2.00 2.07 2.16 2.22 2.21 2.20 2.23 2.33 2.29 2.18 2.03 1.95 2.12 2.37 2.44 2.38 2.07 1.77 1.63 1.59 1.69 1.81 1.82 1.82 1.79 1.73
1.51 1.44 1.44 1.50 1.65 1.80 1.88 1.92 1.97 1.95 1.92 1.96 1.97 1.99 2.08 2.18 2.27 2.27 2.22 2.26 2.28 2.30 2.39 2.35 2.33 2.35 2.33 2.26 2.15 1.98 1.80 1.74 1.80 1.83 1.68 1.60 1.50 1.41